When you browse on this site, cookies collect data to enhance your experience and personalize the content and advertising you see.
Visit our Privacy Policy to learn more. By continuing to use the site, you agree to this use of cookies and data.
  • En España
  • Lista de países
  • Para 7 días
  • Temperatura del agua
  • Mapa Satelital
  • El tiempo en el mapa
  • Informadores
  • user-avatar
    Iniciar sesión

    Tiempo cada hora Ondjiwa

    Hoy, 12 Diciembre, Miércoles

    Tiempo Temperatura Precipitaciones Viento Presión Humedad
    00:00 +26°C° 0 mm 3 mps 668 mmHg 18%
    01:00 +25°C° 0 mm 4 mps 668 mmHg 22%
    02:00 +23°C° 0 mm 4 mps 667 mmHg 24%
    03:00 +22°C° 0 mm 3 mps 667 mmHg 26%
    04:00 +22°C° 0 mm 3 mps 667 mmHg 29%
    05:00 +24°C° 0 mm 3 mps 668 mmHg 26%
    06:00 +25°C° 0 mm 3 mps 668 mmHg 24%
    07:00 +26°C° 0 mm 4 mps 669 mmHg 21%
    08:00 +28°C° 0 mm 4 mps 669 mmHg 17%
    09:00 +32°C° 0 mm 4 mps 669 mmHg 13%
    10:00 +34°C° 0 mm 4 mps 670 mmHg 10%
    11:00 +36°C° 0 mm 4 mps 669 mmHg 9%
    12:00 +37°C° 0 mm 4 mps 669 mmHg 8%
    13:00 +39°C° 0 mm 3 mps 669 mmHg 7%
    14:00 +39°C° 0 mm 3 mps 668 mmHg 7%
    15:00 +39°C° 0 mm 3 mps 667 mmHg 7%
    16:00 +39°C° 0 mm 3 mps 667 mmHg 6%
    17:00 +37°C° 0 mm 3 mps 666 mmHg 8%
    18:00 +35°C° 0 mm 3 mps 666 mmHg 9%
    19:00 +31°C° 0 mm 3 mps 666 mmHg 10%
    20:00 +31°C° 0 mm 3 mps 666 mmHg 10%
    21:00 +30°C° 0 mm 2 mps 667 mmHg 11%
    22:00 +29°C° 0 mm 2 mps 667 mmHg 11%
    23:00 +28°C° 0 mm 3 mps 667 mmHg 13%

    Mañana, 13 Diciembre, Jueves

    Tiempo Temperatura Precipitaciones Viento Presión Humedad
    00:00 +28°C° 0 mm 3 mps 667 mmHg 15%
    01:00 +27°C° 0 mm 4 mps 667 mmHg 17%
    02:00 +26°C° 0 mm 3 mps 667 mmHg 20%
    03:00 +26°C° 0 mm 3 mps 667 mmHg 22%
    04:00 +25°C° 0 mm 2 mps 667 mmHg 24%
    05:00 +26°C° 0 mm 2 mps 668 mmHg 23%
    06:00 +27°C° 0 mm 2 mps 668 mmHg 21%
    07:00 +28°C° 0 mm 2 mps 669 mmHg 20%
    08:00 +30°C° 0 mm 3 mps 669 mmHg 17%
    09:00 +34°C° 0 mm 3 mps 670 mmHg 13%
    10:00 +36°C° 0 mm 4 mps 670 mmHg 10%
    11:00 +38°C° 0 mm 4 mps 670 mmHg 10%
    12:00 +39°C° 0 mm 3 mps 669 mmHg 10%
    13:00 +40°C° 0 mm 3 mps 669 mmHg 9%
    14:00 +40°C° 0 mm 3 mps 668 mmHg 10%
    15:00 +39°C° 0 mm 3 mps 667 mmHg 11%
    16:00 +38°C° 0 mm 3 mps 667 mmHg 12%
    17:00 +37°C° 0 mm 3 mps 667 mmHg 13%
    18:00 +36°C° 0 mm 2 mps 667 mmHg 14%
    19:00 +34°C° 0 mm 2 mps 667 mmHg 15%
    20:00 +34°C° 0 mm 3 mps 667 mmHg 17%
    21:00 +33°C° 0 mm 4 mps 668 mmHg 20%
    22:00 +33°C° 0 mm 5 mps 669 mmHg 22%
    23:00 +32°C° 0 mm 5 mps 668 mmHg 21%

    Pasado mañana, 14 Diciembre, Viernes

    Tiempo Temperatura Precipitaciones Viento Presión Humedad
    00:00 +32°C° 0 mm 4 mps 668 mmHg 21%
    01:00 +30°C° 0 mm 4 mps 668 mmHg 21%
    02:00 +30°C° 0 mm 3 mps 667 mmHg 20%
    03:00 +29°C° 0 mm 3 mps 667 mmHg 18%
    04:00 +28°C° 0 mm 3 mps 667 mmHg 17%
    05:00 +28°C° 0 mm 2 mps 668 mmHg 17%
    06:00 +29°C° 0 mm 2 mps 668 mmHg 17%
    07:00 +29°C° 0 mm 1 mps 669 mmHg 17%
    08:00 +31°C° 0 mm 2 mps 669 mmHg 15%
    09:00 +35°C° 0 mm 3 mps 670 mmHg 14%
    10:00 +37°C° 0 mm 4 mps 670 mmHg 12%
    11:00 +39°C° 0 mm 3 mps 669 mmHg 11%
    12:00 +40°C° 0 mm 3 mps 669 mmHg 11%
    13:00 +42°C° 0 mm 3 mps 668 mmHg 10%
    14:00 +41°C° 0 mm 2 mps 667 mmHg 10%
    15:00 +41°C° 0 mm 2 mps 667 mmHg 10%
    16:00 +40°C° 0 mm 1 mps 666 mmHg 10%
    17:00 +39°C° 0 mm 1 mps 666 mmHg 11%
    18:00 +37°C° 0 mm 1 mps 666 mmHg 12%
    19:00 +35°C° 0 mm 1 mps 666 mmHg 13%
    20:00 +34°C° 0 mm 1 mps 667 mmHg 15%
    21:00 +34°C° 0 mm 2 mps 667 mmHg 16%
    22:00 +34°C° 0 mm 2 mps 668 mmHg 17%
    23:00 +31°C° 0 mm 3 mps 667 mmHg 19%

    15 Diciembre, Sábado

    Tiempo Temperatura Precipitaciones Viento Presión Humedad
    00:00 +30°C° 0 mm 3 mps 667 mmHg 21%
    01:00 +29°C° 0 mm 4 mps 667 mmHg 22%
    02:00 +28°C° 0 mm 3 mps 666 mmHg 23%
    03:00 +27°C° 0 mm 3 mps 666 mmHg 24%
    04:00 +26°C° 0 mm 2 mps 666 mmHg 25%
    05:00 +27°C° 0 mm 2 mps 667 mmHg 23%
    06:00 +27°C° 0 mm 3 mps 667 mmHg 22%
    07:00 +28°C° 0 mm 3 mps 668 mmHg 20%
    08:00 +31°C° 0 mm 2 mps 668 mmHg 17%
    09:00 +36°C° 0 mm 2 mps 669 mmHg 15%
    10:00 +39°C° 0 mm 1 mps 670 mmHg 12%
    11:00 +40°C° 0 mm 1 mps 669 mmHg 11%
    12:00 +41°C° 0 mm 2 mps 668 mmHg 11%
    13:00 +42°C° 0 mm 2 mps 667 mmHg 10%
    14:00 +42°C° 0 mm 2 mps 667 mmHg 10%
    15:00 +41°C° 0 mm 2 mps 666 mmHg 11%
    16:00 +40°C° 0 mm 2 mps 665 mmHg 11%
    17:00 +39°C° 0 mm 2 mps 666 mmHg 12%
    18:00 +37°C° 0 mm 1 mps 666 mmHg 13%
    19:00 +35°C° 0 mm 1 mps 666 mmHg 14%
    20:00 +35°C° 0 mm 1 mps 666 mmHg 15%
    21:00 +34°C° 0 mm 1 mps 667 mmHg 15%
    22:00 +34°C° 0 mm 1 mps 667 mmHg 16%
    23:00 +33°C° 0 mm 3 mps 667 mmHg 19%

    16 Diciembre, Domingo

    Tiempo Temperatura Precipitaciones Viento Presión Humedad
    00:00 +32°C° 0 mm 4 mps 667 mmHg 22%
    01:00 +30°C° 0 mm 5 mps 666 mmHg 24%
    02:00 +29°C° 0 mm 5 mps 666 mmHg 27%
    03:00 +28°C° 0 mm 5 mps 666 mmHg 30%
    04:00 +27°C° 0 mm 5 mps 666 mmHg 33%
    05:00 +27°C° 0 mm 4 mps 666 mmHg 33%
    06:00 +27°C° 0 mm 4 mps 667 mmHg 33%
    07:00 +27°C° 0 mm 4 mps 667 mmHg 33%
    08:00 +30°C° 0 mm 4 mps 668 mmHg 28%
    09:00 +34°C° 0 mm 3 mps 668 mmHg 23%
    10:00 +37°C° 0 mm 2 mps 668 mmHg 18%
    11:00 +39°C° 0 mm 2 mps 668 mmHg 16%
    12:00 +41°C° 0 mm 2 mps 668 mmHg 13%
    13:00 +43°C° 0 mm 2 mps 667 mmHg 11%
    14:00 +42°C° 0 mm 2 mps 667 mmHg 11%
    15:00 +41°C° 0 mm 2 mps 666 mmHg 11%
    16:00 +40°C° 0 mm 2 mps 665 mmHg 11%
    17:00 +39°C° 0 mm 2 mps 665 mmHg 12%
    18:00 +37°C° 0 mm 1 mps 666 mmHg 13%
    19:00 +36°C° 0 mm 1 mps 666 mmHg 14%
    20:00 +35°C° 0 mm 1 mps 666 mmHg 15%
    21:00 +35°C° 0 mm 2 mps 667 mmHg 16%
    22:00 +34°C° 0 mm 2 mps 667 mmHg 17%
    23:00 +33°C° 0 mm 3 mps 667 mmHg 20%

    17 Diciembre, Lunes

    Tiempo Temperatura Precipitaciones Viento Presión Humedad
    00:00 +32°C° 0 mm 4 mps 666 mmHg 23%
    01:00 +30°C° 0 mm 6 mps 666 mmHg 25%
    02:00 +29°C° 0 mm 5 mps 666 mmHg 26%
    03:00 +28°C° 0 mm 5 mps 666 mmHg 27%
    04:00 +27°C° 0 mm 5 mps 666 mmHg 28%
    05:00 +27°C° 0 mm 5 mps 667 mmHg 27%
    06:00 +27°C° 0 mm 4 mps 667 mmHg 26%
    07:00 +28°C° 0 mm 4 mps 668 mmHg 25%
    08:00 +30°C° 0 mm 4 mps 668 mmHg 22%
    09:00 +33°C° 0 mm 3 mps 668 mmHg 20%
    10:00 +36°C° 0 mm 3 mps 669 mmHg 18%
    11:00 +38°C° 0 mm 2 mps 668 mmHg 16%
    12:00 +41°C° 0 mm 1 mps 668 mmHg 14%
    13:00 +40°C° 0 mm 0 mps 668 mmHg 13%
    14:00 +42°C° 0 mm 1 mps 667 mmHg 13%
    15:00 +41°C° 0 mm 1 mps 666 mmHg 13%
    16:00 +40°C° 0 mm 1 mps 666 mmHg 14%
    17:00 +39°C° 0 mm 1 mps 666 mmHg 15%
    18:00 +36°C° 0 mm 1 mps 666 mmHg 16%
    19:00 +35°C° 0 mm 1 mps 666 mmHg 17%
    20:00 +35°C° 0 mm 2 mps 666 mmHg 19%
    21:00 +34°C° 0 mm 2 mps 667 mmHg 21%
    22:00 +33°C° 0 mm 3 mps 667 mmHg 23%
    23:00 +32°C° 0 mm 4 mps 667 mmHg 25%
    Mostrar más